UAL1752 KPBI-KIAH

Flight info

Callsign UAL1752
Flight time N/A
Altitude 34000
Route OLAKE3 JAYMC Y280 LEV NNCEE2
Aircraft B739/M-SDE2E3FGHIRWXY/LB1

Departure

Time 2026-04-30 19:31
Airport Palm Beach International Airport (KPBI)

Arrival

Time N/A
Airport George Bush Intercontinental Airport (KIAH)
Time Latitude Longitude Altitude Speed Heading
2026-04-30 19:13 26.68558 -80.09022 23 ft 0 kts 92°
2026-04-30 19:22 26.68559 -80.09051 22 ft 4 kts 101°
2026-04-30 19:23 26.68593 -80.09092 23 ft 1 kts 182°
2026-04-30 19:25 26.68590 -80.09092 23 ft 2 kts 182°
2026-04-30 19:26 26.68431 -80.09133 21 ft 17 kts 222°
2026-04-30 19:26 26.68353 -80.09012 20 ft 12 kts 92°
2026-04-30 19:26 26.68349 -80.08914 19 ft 13 kts 92°
2026-04-30 19:27 26.68340 -80.08724 24 ft 12 kts 94°
2026-04-30 19:27 26.68331 -80.08544 26 ft 11 kts 92°
2026-04-30 19:28 26.68327 -80.08458 26 ft 11 kts 92°
2026-04-30 19:28 26.68321 -80.08292 29 ft 10 kts 92°
2026-04-30 19:29 26.68314 -80.08136 32 ft 10 kts 93°
2026-04-30 19:29 26.68306 -80.08062 30 ft 10 kts 114°
2026-04-30 19:30 26.68216 -80.08423 28 ft 85 kts 272°
2026-04-30 19:30 26.68306 -80.10639 512 ft 173 kts 270°
2026-04-30 19:31 26.68404 -80.13530 1757 ft 210 kts 270°
2026-04-30 19:31 26.68473 -80.15263 2149 ft 229 kts 271°
2026-04-30 19:31 26.68625 -80.18828 3621 ft 228 kts 271°
2026-04-30 19:32 26.68840 -80.20610 4102 ft 242 kts 290°
2026-04-30 19:32 26.69712 -80.22317 4519 ft 259 kts 301°
2026-04-30 19:32 26.70673 -80.24000 5168 ft 267 kts 300°
2026-04-30 19:32 26.71672 -80.25759 6040 ft 267 kts 303°
2026-04-30 19:33 26.73014 -80.27232 6759 ft 277 kts 327°
2026-04-30 19:33 26.74738 -80.28179 7680 ft 275 kts 333°
2026-04-30 19:33 26.76470 -80.29033 8446 ft 278 kts 334°
2026-04-30 19:33 26.78286 -80.29924 9223 ft 281 kts 334°
2026-04-30 19:34 26.80048 -80.30794 10091 ft 280 kts 333°
2026-04-30 19:34 26.81868 -80.31702 10548 ft 297 kts 333°
2026-04-30 19:34 26.85969 -80.33770 10854 ft 343 kts 333°
2026-04-30 19:35 26.88171 -80.34899 10993 ft 359 kts 329°
2026-04-30 19:35 26.90145 -80.36611 11423 ft 362 kts 309°
2026-04-30 19:35 26.91473 -80.38982 12063 ft 359 kts 292°
2026-04-30 19:35 26.92091 -80.41686 12674 ft 360 kts 278°
2026-04-30 19:36 26.92411 -80.44481 13233 ft 363 kts 277°
2026-04-30 19:36 26.92684 -80.47303 13770 ft 366 kts 276°
2026-04-30 19:36 26.93235 -80.53007 14765 ft 370 kts 277°
2026-04-30 19:37 26.93528 -80.55880 15256 ft 372 kts 277°
2026-04-30 19:37 26.93830 -80.58772 15733 ft 374 kts 277°
2026-04-30 19:37 26.94140 -80.61688 16203 ft 377 kts 277°
2026-04-30 19:37 26.94453 -80.64619 16663 ft 379 kts 278°
2026-04-30 19:38 26.94763 -80.67522 17109 ft 382 kts 278°
2026-04-30 19:38 26.95079 -80.70486 17567 ft 384 kts 278°
2026-04-30 19:38 26.95396 -80.73468 18013 ft 386 kts 278°
2026-04-30 19:38 26.95714 -80.76460 18400 ft 388 kts 278°
2026-04-30 19:39 26.95979 -80.79477 18736 ft 391 kts 275°
2026-04-30 19:39 26.96128 -80.82546 19057 ft 394 kts 274°
2026-04-30 19:39 26.96229 -80.85621 19383 ft 397 kts 274°
2026-04-30 19:39 26.96323 -80.88725 19699 ft 399 kts 274°
2026-04-30 19:40 26.96422 -80.91843 20010 ft 401 kts 274°
2026-04-30 19:40 26.96531 -80.94980 20315 ft 404 kts 274°
2026-04-30 19:40 26.96646 -80.98137 20614 ft 406 kts 274°
2026-04-30 19:40 26.96766 -81.01304 20905 ft 408 kts 274°
2026-04-30 19:41 26.96887 -81.04455 21170 ft 410 kts 274°
2026-04-30 19:41 26.97010 -81.07657 21451 ft 412 kts 274°
2026-04-30 19:41 26.97134 -81.10875 21718 ft 414 kts 274°
2026-04-30 19:41 26.97257 -81.14110 21977 ft 416 kts 274°
2026-04-30 19:42 26.97379 -81.17363 22234 ft 418 kts 274°
2026-04-30 19:42 26.97502 -81.20630 22486 ft 420 kts 274°
2026-04-30 19:42 26.97624 -81.23917 22725 ft 422 kts 274°
2026-04-30 19:42 26.97746 -81.27213 22946 ft 424 kts 274°
2026-04-30 19:43 26.97869 -81.30523 23167 ft 426 kts 274°
2026-04-30 19:43 26.97993 -81.33849 23388 ft 427 kts 275°
2026-04-30 19:43 26.98514 -81.37119 23550 ft 427 kts 289°
2026-04-30 19:44 27.01350 -81.42916 23930 ft 428 kts 302°
2026-04-30 19:44 27.02982 -81.45718 24093 ft 430 kts 303°
2026-04-30 19:44 27.04622 -81.48528 24261 ft 431 kts 302°
2026-04-30 19:44 27.06259 -81.51356 24434 ft 433 kts 302°
2026-04-30 19:45 27.07887 -81.54199 24616 ft 434 kts 302°
2026-04-30 19:45 27.09514 -81.57061 24790 ft 435 kts 302°
2026-04-30 19:45 27.11135 -81.59928 24966 ft 436 kts 302°
2026-04-30 19:45 27.12760 -81.62810 25123 ft 437 kts 302°